Showing default

HULIANWANG DIGUI-40, 65043

Orbit data source: Space-Track

HULIANWANG DIGUI-40, 65043 is a payload satellite owned by Zhongguo Xingwang (CN) in LEO that was launched on Wed, 30 Jul 2025 UTC via a CHANG ZHENG 8A launch vehicle from the Wenchang Satellite Launch Center (WSC). Payload-class satellites include a variety of spacecraft equipped with specific instruments for various scientific and technological missions. These include communications satellites like Starlink; space stations such as the ISS; scientific satellites like the Hubble; Earth observation satellites from companies like Planet Labs, Umbra, and HawkEye 360; GPS; miniature CubeSats for education and research; and military/defense satellites.

Loading next visibility...
Identifier
65043, 2025-162A
Orbit
LEO
Country
Flag of CNCN / PRC
Related business
Manufacturer
SECM
Mission
Operational Civil Communications
Bus & Motor
GUOWANG S, Unknown motor
Mass
~800 kg wet, ~800 kg dry
Launch date (UTC)
2025-07-30 (4 months ago)
Launch vehicle
CHANG ZHENG 8A
Launch site
Wenchang Satellite Launch Center (WSC)
Object type
Payload
Rocket body
Debris
Shape & HBR
Box + 2 Pan, 14.5 m
Radar Cross Section
5.935 m², Large (>1 m²)

Expand to show TLE details & history
Last TLE update: 13 hours ago

TLE from 13 hours ago
0 HULIANWANG DIGUI-40
1 65043U 25162A   25342.43627062 -.00000043  00000-0  17550-3 0  9999
2 65043  49.9987 230.1425 0000481  82.1576 277.9351 13.29330825 17979
Epoch: 2025-12-08T10:28Z
TLE epoch observation values (Epoch: 2025-12-08T10:28:13.781Z)
Latitude
Longitude
-4.35025°
Altitude
1,149.744 km
Speed
7.279 km/s
True Right ascension
15h 20m 34s
True Declination
0° 00' 00"
Sunlit
Object was in daylight at epoch
Visualization orbit readout
Latitude
Unknown
Longitude
Unknown
Altitude
Unknown
Speed
Unknown
Apparent Right ascension
Unknown
Apparent Declination
Unknown
Sunlit
N/A
Visualization observer readout
Local Sidereal Time
21:54:00
Azimuth
Unknown
Elevation
Unknown
Doppler factor
Unknown
Orbital elements
Apogee altitude
1,150.356 km
Perigee altitude
1,149.632 km
Semi-major axis
7,528.131 km
Eccentricity
0.00005
Inclination
49.9987°
RAAN
230.1425°
Arg. of periapsis
82.1576°
True anomaly
277.92964°
Mean anomaly
277.9351°
Eccentric anomaly
277.93237°
Mean motion
3.32286 °/min
Orbital period
108.34 mins
BSTAR
0.0001755
Loading maneuver chart data...
Computing Atmospheric mass density...
Loading historical data...
Loading historical data...
Loading historical data...
Loading historical data...
Loading historical data...
Loading historical data...
Loading historical data...

Documentation

Showing up to 5 results
|